Location: Taaricht
(32.5378°N, 5.4251°W)
Time: 10:25:53
(UTC+00:00)

Hubble Space Telescope - Visible Passes

Search period start: 15 July 2020 00:00
Search period end: 25 July 2020 00:00
Orbit: 536 x 540 km, 28.5° (Epoch: 14 July)

Date Brightness Start Highest point End Pass type
(mag) Time Alt. Az. Time Alt. Az. Time Alt. Az.
15 Jul 1.4 20:35:43 10° W 20:39:36 41° S 20:41:40 23° SE visible
16 Jul 1.5 20:25:03 10° WSW 20:28:52 37° S 20:31:23 18° SE visible
17 Jul 1.8 20:14:24 10° WSW 20:18:07 33° SSW 20:21:07 14° SE visible
18 Jul 2.0 20:03:48 10° WSW 20:07:22 29° SSW 20:10:51 11° SE visible
19 Jul 2.3 19:53:14 10° WSW 19:56:37 24° SSW 20:00:00 10° SE visible
